Timeline UpdatesTrip UpdatesNews PostsPvt Posts♥♥Travel TipsAdmin PostsConv PostsFollowed PostsChat RequestsBlog PostsPNR Posts

Disclaimer
Search
 
 
Thu Nov 27, 2014 00:09:20 ISTHomeTrainsΣChainsAtlasPNRForumGalleryNewsFAQTripsMembersLoginFeedback
PNR Super Search

Ticket PNR Status Inquiry - PNR: 855-xxxxxxx (PRS)

OLD STATUS

Status Last Updated on: May 23 2012 (3:55PM) IST

Date of Journey: Wed May 23, 2012   Class: Sleeper - SL   (Total Seats available for this Class/Quota: Avbl >118)
Passenger 1: Waitlist# 47 (Booking Status: W/L 104,GNWL)
* Please Note that in case the Final Charts have not been prepared, the Current Status might upgrade/downgrade at a later stage.
Chart PREPARED

Balharshah-Mumbai CST Passenger/51196

Travel Time: 18h 30m    39 halts    Distance: 889 km    Avg Speed: 48 km/hr
Type: Passenger
Zone: CR/Central
Departs @ 17:30
Platform# ???
SMTWTFS
Balharshah Junction/BPQ 
Arrives @ 12:00 +1 night
Platform# ???
SMTWTFS
Mumbai CST/CSTM 

39 halts. 129 intermediate Stations between Balharshah Junction and Mumbai CST

Show ALL intermediate Stations  Show Old Time-Table

#TrkCodeStation NameX/OArrivesAvgDepartsAvgHaltPFDay#KmSpeedElevZoneAddress
1/==/BPQBalharshah Junction (5)»  -17:30---10.035188mCRBallarpur. Ph : 07172 - 240341, Maharashtra
2/==/BUPHBabupeth (2)XO  17:46-17:48-2m--19.334196mCRChandrapur, Maharashtra
3/==/CDChandrapur Maharashtra (3)X  17:56-17:58-2m--113.840194mCRChandrapur 442401, Maharashtra
4/==/TAETadaliXO  18:20-18:22-2m--128.596207mCRTadali, Maharashtra
5/==/BUXBhandak (5)XO  18:28-18:30-2m--138.045207mCRChandrapur, Maharashtra
6/==/MJRIMajri Junction (3)  18:43-18:45-2m--147.893198mCRDist. Chandrapur, Maharashtra
7/==/WRRWarora (2)X  18:53-18:55-2m--160.263214mCRWarora, Maharashtra
8/==/CKNIChikni Road (2)  19:05-19:07-2m--170.779211mCRChandrapur, Maharashtra
9/==/NGINagriO  19:16-19:18-2m--182.5100230mCRHinganghat, Maharashtra
10/==/HGTHinganghat (3)XO  19:28-19:30-2m--199.254228mCRHinganghat, Maharashtra
11/==/SNNSonegaon (2)  19:48-19:50-2m--1115.549262mCRWardha, Maharashtra
12/==/BPKBhugaon (3)X  19:58-20:00-2m--1122.09267mCRWardha, Maharashtra
13/==/WRWardha Junction (4)XO21:10-22:35-85m--1132.677289mCRWardha 442001, Maharashtra
14/==/PLOPulgaon Junction (3)X  22:58-23:00-2m21162.270273mCRPulgaon, Maharashtra
15/==/DMNDhamangaon (2)X  23:17-23:19-2m--1182.271300mCRDhamangaon, Maharashtra
16/==/CNDChandur (2)X  23:33-23:35-2m--1198.838331mCRAmravati Distt, Maharashtra
17/==/BDBadnera Junction (4)  00:20-00:23-3m12227.681335mCRBadnera (Amravati) 444701, Maharashtra
18/==/MZRMurtizapur (3)  00:54-00:55-1m--2269.489303mCRMurtajapur, Maharashtra
19/==/AKAkola Junction (7)  01:20-01:25-5m12306.680284mCRAkola-444001, Maharashtra
20/==/SEGShegaon (2)O  01:53-01:55-2m--2343.7106281mCRShegaon 444203, Maharashtra
21/==/JMJalamb Junction (3)  02:02-02:05-3m--2356.192259mCRJalamb, Maharashtra
22/==/NNNandura (2)  02:13-02:15-2m--2368.473267mCRNandura, Maharashtra
23/==/MKUMalkapur (2)X  02:38-02:40-2m22396.378252mCRMalkapur, Maharashtra
24/==/BDWDBodwad (2)X  02:55-02:57-2m--2415.966294mCRBodwad, Maharashtra
25/==/VNAVarangaon (3)X  03:13-03:15-2m--2433.530220mCRVarangaon, Maharashtra
26/==/BSLBhusaval Junction (8)XO  03:40-03:50-10m32446.252208mCRBhusaval 425201, Maharashtra
27/==/JLJalgaon Junction (4)X  04:18-04:20-2m22470.387213mCRJalgaon 425001, Maharashtra
28/==/PCPachora Junction (4)X  04:53-04:55-2m--2518.084264mCRPachora 424201, Maharashtra
29/==/CSNChalisgaon Junction (3)X  05:27-05:30-3m--2562.890352mCRChalisgaon 424101, Maharashtra
30/==/NGNNandgaon (3)  05:58-06:00-2m--2605.069476mCRNandgaon, Maharashtra
31/==/MMRManmad Junction (6)X  06:22-06:25-3m42630.482580mCRManmad 423104, Maharashtra
32/==/LSLasalgaon (3)  06:43-06:45-2m--2654.978592mCRLasalgaon, Maharashtra
33/==/NRNiphad (3)  06:58-07:00-2m22671.770550mCRNashik, Maharashtra
34/==/NKNasik Road (3)  07:27-07:30-3m22703.143563mCRNashik 422101, Maharashtra
35/==/DVLDevlali (3)  07:38-07:40-2m22708.939561mCRDist. Nashik 422401, Maharashtra
36/==/IGPIgatpuri (4)X  08:50-08:55-5m32753.823589mCRIgatpuri 422403, Maharashtra
37/==/KSRAKasara (4)X  09:33-09:35-2m--2768.265290mCRDist. Thane 421602, Maharashtra
38/==/KYNKalyan Junction (8)O  10:40 10:37-10:45 10:40-5 3m52835.65310mCRKalyan 421301, Maharashtra
39/==/TNAThane (10)  11:08 11:03-11:10 11:05-2m62855.85810mCRThane (West) 400602, Maharashtra
40/==/DRMumbai Dadar Central (8)  11:37 11:30-11:40 11:33-3m62880.0197mCRMumbai 400014, Maharashtra
41/==/CSTMMumbai CST (18)•  12:00----2888.7-10mCRMumbai 400001, Maharashtra
Scroll to Top
Scroll to Bottom